Location: Seattle
(47.6064°N, 122.3308°W)
Time: 05:45:33
(UTC-08:00)

S-56A Canister/Altair - Pass Details

Date: 29 November 2020
Orbit: 633 x 2499 km, 38.9° (Epoch: 23 January)

Event Time Altitude Azimuth Distance (km) Brightness Sun altitude
Rises 23:13:33 0° 269° (W) 4,675 - -62.6°
Reaches altitude 10° 23:17:26 10° 261° (W) 3,363 - -62.9°
Maximum altitude 23:24:18 32° 202° (SSW) 1,641 - -63.2°
Drops below altitude 10° 23:29:15 10° 140° (SE) 2,400 - -63.5°
Sets 23:31:36 0° 129° (SE) 3,177 - -63.6°
